Alturas, CA

8:53 AM PST on December 12, 2019 (GMT -0800)
Alturas Municipal

Weather History for KAAT - October, 2019

Change the Weather History Date:

Tuesday, October 29, 2019

  Actual Average Record
Temperature  
Mean Temperature 28 °F 42 °F  
Max Temperature 39 °F 59 °F 82 °F (1962)
Min Temperature 16 °F 26 °F 10 °F (1946)
Degree Days  
Heating Degree Days 37 23  
Month to date heating degree days 635 520  
Since 1 July heating degree days 941 897  
Cooling Degree Days 0 0  
Month to date cooling degree days 0 0  
Year to date cooling degree days 217 156  
Moisture  
Dew Point 2 °F    
Average Humidity 32    
Maximum Humidity 58    
Minimum Humidity 13    
Precipitation  
Precipitation 0.00 in 0.05 in 0.36 in (1933)
Month to date precipitation 0.31 0.91  
Year to date precipitation 12.54 10.57  
Sea Level Pressure  
Sea Level Pressure 30.21 in    
Wind  
Wind Speed 10 mph ()    
Max Wind Speed 21 mph    
Max Gust Speed 29 mph    
Visibility 10.0 miles    
Events      
T = Trace of Precipitation, MM = Missing Value Source: Averaged Metar Reports

Daily Weather History Graph

Daily Weather History Graph

Search for Another Location

Airport or City:

Astronomy

Oct. 29, 2019 Rise Set
Actual Time 7:30 AM PDT 6:01 PM PDT
Civil Twilight 7:01 AM PDT 6:29 PM PDT
Nautical Twilight 6:29 AM PDT 7:02 PM PDT
Astronomical Twilight 5:56 AM PDT 7:34 PM PDT
Moon 9:10 AM PDT (10/29) 7:27 PM PDT (10/29)
Length of Visible Light 11h 28m
Length of Day
10h 30m
Waxing Crescent, 4% of the Moon is Illuminated
Oct 29
Waxing Crescent
Nov 4
First Quarter
Nov 12
Full
Nov 19
Last Quarter
Nov 26
New

Hourly Weather History & Observations

Time (PDT) Temp. Windchill Dew Point Humidity Pressure Visibility Wind Dir Wind Speed Gust Speed Precip Events Conditions
12:55 AM 33.1 °F 27.7 °F 10.9 °F 40% 30.03 in 10.0 mi North 5.8 mph - N/A   Clear
1:55 AM 35.1 °F 25.5 °F 14.0 °F 42% 30.04 in 10.0 mi North 15.0 mph - N/A   Clear
2:55 AM 33.1 °F 24.4 °F 12.0 °F 42% 30.06 in 10.0 mi North 11.5 mph - N/A   Clear
3:55 AM 30.9 °F 19.4 °F 14.0 °F 50% 30.07 in 10.0 mi North 17.3 mph - N/A   Clear
4:55 AM 30.0 °F 19.1 °F 15.1 °F 54% 30.09 in 10.0 mi North 15.0 mph - N/A   Clear
5:55 AM 28.9 °F 16.9 °F 15.1 °F 56% 30.13 in 10.0 mi North 17.3 mph 21.9 mph N/A   Clear
6:55 AM 28.9 °F 19.8 °F 15.1 °F 56% 30.16 in 10.0 mi North 10.4 mph - N/A   Clear
7:55 AM 28.0 °F 16.1 °F 14.0 °F 56% 30.19 in 10.0 mi North 16.1 mph 26.5 mph N/A   Clear
8:55 AM 28.9 °F 16.9 °F 6.1 °F 38% 30.22 in 10.0 mi NNE 17.3 mph 21.9 mph N/A   Clear
9:55 AM 30.0 °F 18.7 °F 3.9 °F 33% 30.24 in 10.0 mi North 16.1 mph 25.3 mph N/A   Clear
10:55 AM 32.0 °F 21.6 °F 1.9 °F 28% 30.24 in 10.0 mi North 15.0 mph 20.7 mph N/A   Clear
11:55 AM 34.0 °F 25.0 °F 3.9 °F 28% 30.25 in 10.0 mi North 12.7 mph 21.9 mph N/A   Clear
12:55 PM 36.0 °F 28.0 °F 3.0 °F 25% 30.25 in 10.0 mi North 11.5 mph - N/A   Clear
1:55 PM 39.0 °F 33.4 °F -6.0 °F 15% 30.22 in 10.0 mi NE 8.1 mph - N/A   Clear
2:55 PM 39.9 °F 34.5 °F -8.0 °F 13% 30.21 in 10.0 mi NE 8.1 mph 25.3 mph N/A   Clear
3:55 PM 39.0 °F 31.4 °F -6.0 °F 15% 30.24 in 10.0 mi ENE 12.7 mph - N/A   Clear
4:55 PM 37.9 °F 29.6 °F -7.1 °F 15% 30.25 in 10.0 mi ENE 13.8 mph 19.6 mph N/A   Clear
5:55 PM 34.0 °F 25.5 °F -6.0 °F 18% 30.26 in 10.0 mi ENE 11.5 mph 20.7 mph N/A   Clear
6:55 PM 30.0 °F 22.4 °F -6.0 °F 21% 30.27 in 10.0 mi ENE 8.1 mph - N/A   Clear
7:55 PM 28.9 °F 21.9 °F -7.1 °F 21% 30.28 in 10.0 mi ENE 6.9 mph - N/A   Clear
8:55 PM 27.0 °F 23.0 °F -6.0 °F 24% 30.30 in 10.0 mi ENE 3.5 mph - N/A   Clear
9:55 PM 26.1 °F - -5.1 °F 26% 30.31 in 10.0 mi Calm Calm - N/A   Clear
10:55 PM 23.0 °F - -6.0 °F 28% 30.32 in 10.0 mi Calm Calm - N/A   Clear
11:55 PM 24.1 °F 16.0 °F -6.0 °F 27% 30.32 in 10.0 mi SE 6.9 mph - N/A   Clear